Total_Precipitation_Accumulation
-0.02 -0.02 -0.55 -0.59 -0.46 -0.46 -0.36 -0.39 -0.22 -0.22 0.25 1.01 1.43 1.43 1.55 1.54 1.54 1.36 1.47 1.62 1.62 1.60 0.79 0.48 -0.25 -0.25 0.41 1.11 1.20 1.20 1.13 0.71 0.45 0.45 0.49 0.24 0.24 0.16 0.00 0.00 0.00 0.01 0.00 0.00 -0.00 -0.00 -0.00 -0.00 -0.01 -0.01 -0.01 -0.02 -0.02 -0.02 -0.03 -0.01 -0.01 -0.03 -0.00 0.00 0.00 0.00 0.00 0.00 0.00 0.00 0.00 -0.01 -0.03 -0.03 0.00 0.00 0.00 0.00 0.00 0.00 0.00 0.00 -0.00 0.00 0.00 0.00 0.00 0.01 0.02 0.02 0.01 0.00 0.00 0.00 0.00 0.01 -0.01 -0.01 -0.00 -0.01 -0.01 -0.03 -0.03 -0.01 -0.01 -0.01 -0.01
-0.02 -0.03 -0.47 -0.38 -0.55 -0.55 -0.53 -0.35 -0.41 -0.41 -0.06 0.77 1.05 1.05 1.33 1.39 1.39 1.53 1.16 1.36 1.36 1.19 1.38 1.16 0.00 0.00 0.32 1.04 1.14 1.14 1.38 0.81 0.50 0.50 0.33 0.29 0.29 0.17 0.05 0.00 0.00 0.01 0.00 0.00 -0.00 -0.00 -0.00 -0.01 -0.01 -0.01 -0.01 -0.02 -0.02 -0.02 -0.03 -0.02 -0.02 -0.02 -0.02 0.00 0.00 0.00 0.00 0.00 0.00 0.00 0.00 0.00 -0.06 -0.06 -0.01 0.00 0.00 0.00 0.00 0.00 0.00 -0.01 -0.02 0.00 0.00 0.00 0.00 0.01 0.01 0.01 0.00 0.00 0.00 0.00 0.00 0.02 0.00 0.00 0.00 -0.01 -0.01 -0.04 -0.04 -0.01 -0.01 -0.01 -0.01
-0.05 -0.01 -0.31 -0.19 -0.32 -0.32 -0.47 -0.58 -0.25 -0.25 -0.14 0.59 0.93 0.93 1.22 1.22 1.22 1.55 1.54 0.79 0.79 1.18 1.44 0.76 0.22 0.22 0.05 0.79 1.05 1.05 1.73 1.06 1.04 1.04 0.35 0.27 0.27 0.20 0.06 0.00 0.00 0.01 0.00 -0.00 -0.00 -0.00 -0.00 -0.00 -0.01 -0.01 -0.01 -0.02 -0.02 -0.02 -0.02 -0.02 -0.02 -0.01 -0.00 0.00 0.00 0.00 0.00 0.00 0.00 0.00 0.00 -0.00 -0.04 -0.04 -0.02 -0.00 -0.00 -0.00 -0.00 -0.00 -0.00 -0.01 -0.01 0.01 0.01 0.00 0.00 0.01 0.01 0.01 0.00 0.00 0.00 0.00 0.00 0.01 0.00 0.00 -0.00 -0.03 -0.03 -0.04 -0.04 -0.02 -0.02 -0.01 -0.00
-0.02 -0.04 -0.18 -0.30 -0.24 -0.24 -0.56 -0.52 -0.16 -0.16 -0.11 0.30 0.82 0.82 1.19 1.28 1.28 1.07 0.95 1.06 1.06 1.25 1.38 0.85 0.60 0.60 -0.11 0.40 0.84 0.84 1.69 1.46 1.08 1.08 0.39 0.29 0.29 0.18 0.08 0.00 0.00 0.00 0.01 -0.00 -0.00 -0.00 -0.00 -0.00 -0.01 -0.01 -0.01 -0.02 -0.02 -0.02 -0.02 -0.01 -0.01 -0.01 -0.00 0.00 0.00 0.00 0.00 0.00 0.00 0.00 0.00 -0.01 -0.06 -0.06 -0.02 -0.00 -0.00 -0.00 -0.01 -0.00 -0.00 -0.02 -0.01 0.01 0.01 0.01 0.01 0.02 0.01 0.01 0.00 0.00 0.00 0.00 0.01 0.00 0.00 0.00 0.00 -0.04 -0.04 -0.05 -0.03 -0.01 -0.01 -0.01 0.00
-0.03 -0.03 -0.04 -0.19 -0.27 -0.27 -0.15 -0.64 -0.56 -0.56 -0.01 0.04 0.57 0.57 1.09 1.34 1.34 1.03 0.76 1.05 1.05 1.27 1.48 1.06 0.66 0.66 -0.05 0.18 0.69 0.69 1.37 1.69 1.27 1.27 0.65 0.36 0.36 0.34 0.11 0.00 0.00 0.00 0.00 -0.00 -0.00 -0.00 -0.00 -0.01 -0.01 -0.01 -0.01 -0.01 -0.01 -0.01 -0.02 -0.01 -0.01 -0.01 0.00 0.00 0.00 -0.00 -0.00 -0.06 0.00 0.00 -0.00 -0.03 -0.06 -0.06 -0.02 -0.00 -0.00 -0.00 -0.01 0.00 0.00 -0.02 -0.01 0.01 0.01 0.01 0.01 0.02 0.01 0.01 0.00 0.00 0.00 0.00 0.01 0.00 0.00 0.00 -0.00 -0.01 -0.01 -0.06 -0.05 -0.01 -0.01 -0.00 0.00
-0.06 -0.02 -0.03 -0.03 -0.20 -0.20 -0.25 -0.34 -0.66 -0.66 -0.25 0.09 0.33 0.33 0.87 1.47 1.47 1.05 0.92 0.79 0.79 1.19 1.36 1.40 0.86 0.86 0.31 0.31 0.57 0.57 0.82 1.49 1.68 1.68 1.45 0.60 0.60 0.46 0.16 0.02 0.02 0.00 0.00 -0.00 -0.00 -0.00 -0.00 -0.00 -0.01 -0.01 -0.01 -0.01 -0.02 -0.02 -0.03 -0.01 -0.01 -0.00 -0.00 0.00 0.00 0.00 -0.09 -0.07 -0.02 -0.02 -0.02 0.01 -0.04 -0.04 -0.03 0.00 -0.00 -0.00 -0.00 -0.00 -0.00 -0.02 0.00 0.01 0.01 0.01 0.01 0.02 0.01 0.01 0.00 0.00 0.01 0.01 0.01 0.00 0.00 0.00 0.00 0.01 0.01 -0.05 -0.04 -0.02 -0.02 -0.00 0.00
-0.13 -0.07 -0.05 -0.04 -0.17 -0.17 -0.23 -0.16 -0.30 -0.30 -0.33 -0.15 0.26 0.26 0.54 1.66 1.66 1.95 1.01 0.85 0.85 0.82 1.28 1.44 1.19 1.19 0.67 0.46 0.53 0.53 0.89 1.19 1.85 1.85 1.75 0.84 0.84 0.54 0.24 0.07 0.07 -0.00 0.00 -0.00 -0.00 -0.00 -0.00 -0.00 -0.01 -0.01 -0.01 -0.01 -0.01 -0.01 -0.03 -0.01 -0.01 -0.00 0.00 0.00 0.00 0.00 0.00 -0.05 -0.04 -0.04 -0.05 -0.01 -0.02 -0.02 -0.02 -0.00 -0.00 -0.00 -0.00 -0.01 -0.01 -0.02 0.00 0.01 0.01 0.01 0.02 0.02 0.00 0.00 0.00 0.00 0.02 0.02 0.01 0.00 0.00 0.00 0.00 0.00 0.00 -0.07 -0.03 -0.01 -0.01 -0.00 0.00
-0.24 -0.22 -0.08 -0.05 -0.07 -0.07 -0.17 -0.26 -0.22 -0.22 -0.40 -0.24 0.22 0.22 0.49 1.74 1.74 2.02 2.11 1.05 1.05 0.87 0.99 1.28 1.12 1.12 1.05 0.62 0.83 0.83 0.88 1.24 1.88 1.88 1.80 2.12 2.12 0.70 0.49 0.15 0.15 -0.00 0.00 -0.00 -0.00 -0.00 -0.00 -0.00 -0.01 -0.01 -0.01 -0.01 -0.01 -0.01 -0.03 -0.01 -0.01 -0.00 0.00 0.00 0.00 0.00 0.00 -0.02 -0.05 -0.05 -0.11 -0.06 -0.04 -0.04 -0.06 -0.02 -0.00 -0.00 -0.00 -0.00 -0.00 -0.02 -0.00 0.01 0.01 0.01 0.01 0.02 0.01 0.01 0.00 0.00 0.02 0.02 0.01 0.00 0.00 0.00 0.01 0.04 0.04 -0.05 -0.04 -0.01 -0.01 -0.00 0.00
-0.37 -0.30 -0.12 -0.10 -0.07 -0.07 -0.13 -0.26 -0.30 -0.30 -0.24 -0.33 0.07 0.07 0.30 0.70 0.70 1.53 2.12 1.56 1.56 1.01 0.71 1.23 1.30 1.30 1.26 0.80 0.69 0.69 1.30 1.05 1.25 1.25 1.91 2.15 2.15 1.36 0.60 0.23 0.23 0.07 0.00 -0.00 -0.00 -0.00 -0.00 0.00 -0.01 -0.01 -0.01 -0.01 -0.01 -0.01 -0.05 -0.01 -0.01 -0.00 0.00 0.00 0.00 0.00 -0.03 -0.20 -0.03 -0.03 -0.17 -0.15 -0.09 -0.09 -0.11 -0.05 -0.03 -0.03 -0.00 -0.01 -0.01 -0.01 -0.00 0.00 0.00 0.01 0.02 0.02 0.01 0.01 0.00 0.00 0.03 0.03 0.00 0.00 0.00 0.00 0.01 0.05 0.05 0.03 -0.03 -0.01 -0.01 -0.00 0.00
-0.47 -0.40 -0.22 -0.16 -0.13 -0.13 -0.09 -0.23 -0.30 -0.30 -0.25 -0.17 -0.30 -0.30 0.08 0.22 0.22 1.32 1.73 1.62 1.62 1.48 1.08 1.09 1.28 1.28 1.27 1.00 1.00 1.00 1.03 1.14 1.28 1.28 1.83 1.99 1.99 1.55 0.85 0.49 0.49 0.16 0.05 -0.00 -0.00 -0.00 -0.00 0.00 0.00 0.00 -0.01 -0.01 -0.01 -0.01 -0.05 -0.01 -0.01 -0.00 0.00 0.00 0.00 0.00 -0.00 -0.20 -0.01 -0.01 -0.17 -0.23 -0.17 -0.17 -0.21 -0.06 -0.05 -0.05 -0.02 -0.02 -0.02 -0.02 -0.00 0.00 0.00 0.00 0.03 0.03 0.01 0.01 0.00 0.00 0.03 0.03 0.01 0.00 0.00 0.00 0.00 0.06 0.06 0.05 -0.02 -0.01 -0.01 -0.00 0.00
-0.54 -0.48 -0.32 -0.24 -0.19 -0.19 -0.13 -0.14 -0.25 -0.25 -0.26 -0.17 -0.19 -0.19 -0.07 -0.08 -0.08 0.82 1.36 1.64 1.64 1.37 1.52 1.37 1.26 1.26 1.23 1.20 1.03 1.03 1.26 0.69 1.27 1.27 1.68 1.87 1.87 1.90 0.99 0.62 0.62 0.23 0.11 -0.00 -0.00 -0.00 -0.00 0.00 0.00 0.00 -0.01 -0.01 -0.01 -0.01 -0.03 -0.02 -0.02 -0.00 0.00 0.00 0.00 0.00 -0.00 0.01 -0.04 -0.04 -0.22 -0.21 -0.27 -0.27 -0.24 -0.12 -0.05 -0.05 -0.02 -0.02 -0.02 -0.02 -0.00 0.00 0.00 0.00 0.04 0.03 0.02 0.02 0.00 0.00 0.03 0.03 0.01 -0.00 0.00 0.00 0.02 0.06 0.06 0.05 0.01 -0.00 -0.00 -0.00 0.00
-0.61 -0.54 -0.42 -0.32 -0.24 -0.24 -0.18 -0.11 -0.20 -0.20 -0.27 -0.25 -0.16 -0.16 -0.19 -0.35 -0.35 0.24 0.84 1.42 1.42 1.34 1.53 1.33 1.31 1.31 1.24 1.19 0.74 0.74 0.78 0.92 1.24 1.24 1.43 1.79 1.79 1.86 1.12 0.62 0.62 0.27 0.15 0.04 -0.00 -0.00 -0.00 0.00 0.00 0.00 -0.01 -0.01 -0.01 -0.01 -0.02 -0.01 -0.01 -0.01 0.00 0.00 0.00 0.00 -0.00 0.07 -0.13 -0.13 -0.22 -0.23 -0.27 -0.27 -0.25 -0.10 -0.04 -0.04 -0.02 -0.01 -0.01 -0.02 -0.00 0.01 0.01 0.00 0.01 0.03 0.01 0.01 0.01 0.00 0.04 0.04 0.00 -0.00 0.00 0.00 0.03 0.08 0.08 0.05 0.01 0.00 0.00 -0.00 0.00
-0.75 -0.63 -0.51 -0.39 -0.30 -0.30 -0.23 -0.15 -0.21 -0.21 -0.33 -0.25 -0.22 -0.22 -0.32 -0.47 -0.47 -0.33 0.32 1.01 1.01 1.57 1.35 1.33 1.12 1.12 1.42 1.20 1.13 1.13 0.45 0.76 1.15 1.15 1.33 1.60 1.60 1.86 1.67 0.88 0.88 0.50 0.17 0.15 -0.00 -0.00 -0.00 -0.00 0.00 0.00 -0.00 -0.01 -0.01 -0.01 -0.01 -0.01 -0.01 -0.01 0.00 0.00 0.00 0.00 -0.00 -0.12 -0.09 -0.09 -0.17 -0.20 -0.24 -0.24 -0.29 -0.10 -0.06 -0.06 -0.02 -0.00 -0.00 -0.02 -0.00 0.02 0.02 0.00 0.01 0.03 0.01 0.01 0.00 0.01 0.05 0.05 0.01 -0.00 0.00 0.00 0.02 0.08 0.08 0.04 0.01 0.00 0.00 0.00 0.00
-0.72 -0.71 -0.60 -0.56 -0.37 -0.37 -0.28 -0.20 -0.17 -0.17 -0.28 -0.42 -0.28 -0.28 -0.27 -0.59 -0.59 -0.58 0.00 0.49 0.49 1.30 1.41 1.34 1.25 1.25 1.12 1.40 1.22 1.22 0.62 0.64 1.19 1.19 1.31 1.40 1.40 1.62 1.91 1.07 1.07 0.98 0.35 0.22 0.09 0.09 -0.00 -0.00 -0.00 -0.00 -0.00 -0.01 -0.01 -0.01 -0.01 -0.01 -0.01 -0.01 0.00 0.00 0.00 0.00 -0.04 -0.19 -0.15 -0.15 -0.32 -0.14 -0.28 -0.28 -0.30 -0.11 -0.06 -0.06 -0.04 -0.02 -0.02 -0.02 -0.00 0.02 0.02 0.00 0.01 0.02 0.02 0.02 0.01 0.01 0.05 0.05 0.01 -0.00 0.00 0.00 0.03 0.10 0.10 0.03 0.01 -0.00 -0.00 0.00 0.00
-0.58 -0.73 -0.71 -0.46 -0.40 -0.40 -0.38 -0.27 -0.18 -0.18 -0.23 -0.46 -0.45 -0.45 -0.45 -0.47 -0.47 -0.81 -0.31 0.16 0.16 1.02 1.13 1.26 1.18 1.18 1.10 1.43 1.45 1.45 0.86 0.64 0.87 0.87 1.37 1.38 1.38 1.37 1.75 1.50 1.50 1.42 0.93 0.44 0.16 0.16 0.00 0.00 0.00 0.00 -0.00 -0.00 -0.01 -0.01 -0.01 -0.01 -0.01 -0.01 -0.00 0.00 0.00 0.00 -0.05 -0.21 -0.01 -0.01 -0.30 -0.14 -0.27 -0.27 -0.28 -0.20 -0.07 -0.07 -0.06 -0.00 -0.00 -0.02 -0.01 0.02 0.02 0.00 0.00 0.02 0.02 0.02 0.01 0.01 0.04 0.04 0.01 -0.00 -0.00 -0.00 0.05 0.11 0.11 0.05 0.00 -0.00 -0.00 -0.00 -0.00
-0.74 -0.51 -0.50 -0.39 -0.43 -0.43 -0.48 -0.35 -0.17 -0.17 -0.18 -0.22 -0.35 -0.35 -0.41 -0.30 -0.30 -0.37 -0.68 -0.34 -0.34 0.42 0.97 1.03 1.10 1.10 1.10 1.29 1.54 1.54 1.40 0.69 0.68 0.68 1.29 1.51 1.51 1.25 1.51 1.95 1.95 2.12 1.61 0.77 0.25 0.25 0.06 0.00 0.00 0.00 0.00 0.00 -0.00 -0.00 -0.00 -0.01 -0.01 -0.00 -0.00 0.00 0.00 0.00 -0.00 -0.05 0.02 0.02 -0.25 -0.13 -0.19 -0.19 -0.25 -0.18 -0.13 -0.13 -0.08 -0.10 -0.10 -0.02 -0.01 0.00 0.00 0.00 0.00 0.01 0.01 0.01 0.01 0.01 0.05 0.05 0.05 0.00 0.00 0.00 0.01 0.11 0.11 0.04 0.00 -0.00 -0.00 -0.01 0.00
-0.68 -0.58 -0.45 -0.36 -0.46 -0.46 -0.52 -0.44 -0.37 -0.37 -0.21 -0.29 -0.27 -0.27 -0.32 -0.52 -0.52 -0.41 -0.46 -0.62 -0.62 -0.31 0.79 0.64 0.91 0.91 1.04 1.16 1.43 1.43 1.58 0.61 0.47 0.47 1.25 1.45 1.45 1.64 1.40 1.81 1.81 2.27 2.20 1.58 0.48 0.48 0.08 0.00 0.00 0.00 0.00 0.00 0.00 0.00 -0.00 -0.00 -0.00 -0.00 0.00 0.00 0.00 -0.00 -0.00 0.07 0.02 0.02 -0.11 -0.08 -0.17 -0.17 -0.18 -0.19 -0.14 -0.14 -0.08 -0.07 -0.07 -0.01 -0.01 0.01 0.01 0.01 0.00 0.00 0.00 0.00 0.00 0.01 0.05 0.05 0.04 0.01 0.00 0.00 0.02 0.10 0.10 0.03 0.01 -0.01 -0.01 -0.01 -0.00
-0.90 -0.57 -0.51 -0.52 -0.60 -0.60 -0.56 -0.52 -0.43 -0.43 -0.22 -0.28 -0.29 -0.29 -0.28 -0.50 -0.50 -0.68 -0.68 -0.80 -0.80 -0.75 0.40 0.37 0.44 0.44 0.77 1.00 1.32 1.32 1.55 0.67 0.44 0.44 0.61 1.42 1.42 1.81 2.00 1.83 1.83 1.72 2.28 1.99 0.87 0.87 0.17 0.00 0.00 0.00 0.00 0.00 0.00 0.00 -0.00 -0.00 -0.00 0.00 0.00 0.00 0.00 0.00 -0.01 0.23 0.11 0.11 -0.09 -0.07 -0.14 -0.14 -0.15 -0.21 -0.15 -0.15 -0.09 -0.04 -0.04 -0.01 0.01 0.01 0.01 0.01 0.00 0.00 0.00 0.00 0.00 0.00 0.01 0.01 0.05 0.02 0.01 0.01 0.02 0.11 0.11 0.02 0.01 -0.03 -0.03 -0.01 0.00
-0.83 -0.74 -0.61 -0.86 -0.78 -0.78 -0.67 -0.61 -0.45 -0.45 -0.55 -0.41 -0.46 -0.46 -0.34 -0.37 -0.37 -0.74 -0.85 -0.78 -0.78 -0.72 -0.05 0.03 0.28 0.28 0.44 0.44 1.16 1.16 1.48 1.55 0.96 0.96 0.42 1.07 1.07 1.63 1.99 2.07 2.07 1.73 2.07 2.01 0.96 0.96 0.42 0.25 0.00 0.00 0.00 0.00 0.00 0.00 -0.00 -0.00 -0.00 -0.00 0.00 0.00 0.00 0.00 -0.03 0.20 0.58 0.58 0.01 -0.06 -0.11 -0.11 -0.17 -0.16 -0.15 -0.15 -0.12 -0.05 -0.05 -0.06 0.02 0.02 0.02 0.01 0.00 0.00 0.00 0.00 0.00 0.00 0.00 0.00 0.05 0.02 0.01 0.01 0.00 0.09 0.09 0.07 0.00 -0.04 -0.04 -0.03 0.00
-1.33 -1.21 -1.27 -1.08 -1.10 -1.10 -1.00 -0.84 -0.94 -0.94 -0.81 -0.92 -0.72 -0.72 -0.71 -0.71 -0.71 -0.48 -0.70 -0.95 -0.95 -0.82 -0.75 -0.56 -0.29 -0.29 0.05 0.28 0.25 0.25 0.81 0.89 1.55 1.55 1.04 0.86 0.86 1.14 1.75 1.81 1.81 1.86 1.62 1.80 1.73 1.73 0.86 0.57 0.24 0.24 0.01 0.00 0.00 0.00 -0.00 -0.00 -0.00 0.00 0.00 0.00 0.00 0.00 -0.00 0.20 0.69 0.69 0.73 0.03 0.04 0.04 -0.04 -0.14 -0.15 -0.15 -0.13 -0.09 -0.09 -0.02 0.00 0.02 0.02 0.03 0.00 0.00 0.00 0.00 0.00 0.00 0.00 0.00 0.05 0.06 0.01 0.01 0.00 0.04 0.04 0.06 0.01 -0.01 -0.01 -0.04 0.00
-1.45 -1.31 -1.22 -1.21 -1.15 -1.15 -1.04 -0.87 -0.79 -0.79 -0.88 -0.81 -1.00 -1.00 -0.59 -0.75 -0.75 -0.59 -0.54 -0.84 -0.84 -0.91 -0.86 -0.90 -0.56 -0.56 -0.16 0.18 0.30 0.30 0.56 0.66 1.01 1.01 1.11 0.90 0.90 0.99 1.47 1.46 1.46 1.70 1.64 1.61 1.92 1.92 1.74 0.91 0.37 0.37 0.03 0.00 0.00 0.00 -0.00 -0.00 -0.00 -0.00 0.00 0.00 0.00 0.00 0.00 -0.03 0.72 0.72 0.82 0.59 0.13 0.13 -0.02 -0.12 -0.15 -0.15 -0.18 -0.10 -0.10 -0.04 0.01 0.01 0.01 0.03 0.01 0.00 0.00 0.00 0.00 0.00 0.00 0.00 0.05 0.06 0.02 0.02 0.00 0.04 0.04 0.07 0.01 -0.01 -0.01 -0.07 0.00
-1.60 -1.35 -1.25 -1.10 -1.04 -1.04 -1.01 -0.70 -0.60 -0.60 -0.64 -0.62 -0.66 -0.66 -0.43 -0.62 -0.62 -0.60 -0.40 -0.60 -0.60 -0.80 -0.77 -0.82 -0.62 -0.62 -0.50 0.07 0.23 0.23 0.43 0.65 0.80 0.80 1.14 0.87 0.87 1.02 1.08 1.29 1.29 1.42 1.43 1.45 1.69 1.69 1.63 1.16 0.67 0.67 0.20 0.01 0.00 0.00 -0.00 -0.00 -0.00 -0.00 0.00 0.00 0.00 0.00 0.00 -0.03 0.16 0.16 0.82 0.93 0.51 0.51 0.02 -0.08 -0.13 -0.13 -0.12 -0.15 -0.15 -0.05 0.01 0.00 0.00 0.03 0.01 0.00 0.00 0.00 0.00 0.00 0.00 0.00 -0.00 0.06 0.02 0.02 0.01 0.04 0.04 0.07 0.06 -0.01 -0.01 -0.09 -0.03
-1.64 -1.40 -1.21 -1.08 -1.01 -1.01 -0.89 -0.72 -0.69 -0.69 -0.67 -0.60 -0.48 -0.48 -0.42 -0.36 -0.36 -0.45 -0.28 -0.36 -0.36 -0.37 -0.44 -0.67 -0.45 -0.45 -0.18 0.04 0.18 0.18 0.34 0.72 0.89 0.89 0.74 0.68 0.68 0.74 0.99 1.10 1.10 1.42 1.35 1.25 1.41 1.41 1.36 1.62 0.94 0.94 0.37 0.05 -0.00 -0.00 -0.00 0.05 0.05 -0.00 0.00 0.00 0.00 0.00 0.00 0.00 0.12 0.12 0.74 0.98 0.87 0.87 0.15 -0.05 -0.09 -0.09 -0.04 -0.13 -0.13 -0.11 0.02 0.02 0.02 0.01 0.01 0.00 0.00 0.00 0.00 0.00 0.00 0.00 -0.00 -0.00 0.02 0.02 0.01 0.00 0.00 0.06 0.06 0.01 0.01 -0.10 -0.02
-1.45 -1.49 -1.28 -1.11 -1.07 -1.07 -1.05 -0.92 -0.64 -0.64 -0.63 -0.46 -0.46 -0.46 -0.35 -0.33 -0.33 -0.30 -0.30 -0.31 -0.31 -0.32 -0.31 -0.34 -0.35 -0.35 -0.19 0.05 0.12 0.12 0.31 0.65 0.84 0.84 0.88 0.60 0.60 0.52 0.48 1.07 1.07 1.31 1.73 1.45 1.20 1.20 1.05 1.41 1.38 1.38 0.78 0.11 0.02 0.02 0.02 0.04 0.04 0.06 0.04 0.00 0.00 0.00 0.00 0.00 0.11 0.11 0.30 0.82 0.86 0.86 0.71 0.05 -0.06 -0.06 -0.06 -0.04 -0.04 -0.05 0.03 0.02 0.02 0.05 0.02 0.00 0.00 0.00 0.00 0.00 0.00 0.00 -0.00 -0.02 0.04 0.04 0.01 0.00 0.00 0.04 0.06 0.01 0.01 -0.01 -0.02
-1.19 -1.37 -1.13 -1.07 -1.04 -1.04 -0.83 -0.77 -0.62 -0.62 -0.51 -0.42 -0.38 -0.38 -0.37 -0.30 -0.30 -0.28 -0.34 -0.37 -0.37 -0.32 -0.23 -0.26 -0.30 -0.30 -0.19 -0.06 0.19 0.19 0.30 0.46 0.70 0.70 0.81 0.53 0.53 0.35 0.42 0.94 0.94 1.20 1.43 1.81 1.40 1.40 1.04 1.15 1.55 1.55 1.22 0.41 0.23 0.23 0.02 0.04 0.04 0.10 0.08 0.01 0.01 0.01 0.00 0.00 0.05 0.05 0.42 0.73 0.74 0.74 0.80 0.28 -0.03 -0.03 -0.05 0.07 0.07 0.10 0.09 0.03 0.03 0.08 0.03 0.01 0.00 0.00 0.00 0.00 0.00 0.00 0.00 -0.02 0.02 0.02 0.02 0.00 0.00 0.03 0.05 0.01 0.01 -0.01 -0.09
-0.98 -1.19 -1.10 -0.97 -0.87 -0.87 -0.77 -0.65 -0.55 -0.55 -0.49 -0.42 -0.35 -0.35 -0.35 -0.23 -0.23 -0.22 -0.25 -0.29 -0.29 -0.31 -0.26 -0.24 -0.19 -0.19 -0.30 -0.10 0.05 0.05 0.15 0.32 0.61 0.61 0.66 0.78 0.78 0.35 0.40 0.80 0.80 1.05 1.35 1.71 1.65 1.65 1.59 0.96 1.23 1.23 1.54 1.38 0.68 0.68 0.03 0.04 0.04 0.06 0.10 0.06 0.06 0.00 0.01 0.00 0.00 0.00 0.41 0.63 0.55 0.55 0.82 0.71 0.11 0.11 0.02 0.04 0.04 0.08 0.24 0.16 0.16 0.11 0.02 0.02 0.00 0.00 0.00 0.00 0.00 0.00 0.00 -0.00 0.01 0.01 0.01 0.00 0.00 0.03 0.04 0.05 0.05 -0.01 -0.04
-0.85 -1.04 -0.97 -0.92 -0.93 -0.93 -0.79 -0.65 -0.55 -0.55 -0.46 -0.43 -0.42 -0.42 -0.36 -0.36 -0.36 -0.23 -0.18 -0.25 -0.25 -0.32 -0.32 -0.24 -0.20 -0.20 -0.17 -0.14 -0.09 -0.09 0.08 0.21 0.42 0.42 0.59 0.80 0.80 0.52 0.42 0.35 0.35 0.85 1.13 1.30 1.34 1.34 1.55 0.95 0.87 0.87 1.28 1.48 1.09 1.09 0.47 0.04 0.04 0.08 0.10 0.09 0.09 0.03 0.00 0.00 0.00 0.00 0.39 0.51 0.48 0.48 0.64 0.88 0.66 0.66 0.28 0.26 0.26 0.25 0.29 0.23 0.23 0.19 0.00 0.03 0.01 0.01 0.00 0.00 0.00 0.00 0.00 -0.00 -0.02 -0.02 0.00 0.00 0.00 0.00 0.04 0.05 0.05 0.02 0.02
-0.95 -0.92 -0.92 -0.89 -0.91 -0.91 -0.88 -0.76 -0.48 -0.48 -0.43 -0.45 -0.55 -0.55 -0.52 -0.43 -0.43 -0.36 -0.33 -0.23 -0.23 -0.32 -0.31 -0.26 -0.19 -0.19 -0.07 -0.06 -0.05 -0.05 0.11 0.20 0.23 0.23 0.46 0.67 0.67 0.69 0.42 0.31 0.31 0.57 0.86 1.07 0.96 0.96 1.15 1.40 0.78 0.78 0.85 0.92 1.18 1.18 0.73 0.10 0.10 0.06 0.12 0.09 0.09 0.06 0.01 0.00 0.00 0.00 0.00 0.41 0.77 0.77 0.45 0.71 0.68 0.68 0.63 0.32 0.32 0.31 0.30 0.28 0.28 0.22 0.24 0.06 0.03 0.03 0.00 0.00 0.00 0.00 0.00 0.00 -0.03 -0.03 -0.00 0.00 0.00 0.00 0.03 0.04 0.04 0.03 0.00
-1.01 -0.89 -0.88 -0.83 -0.86 -0.86 -0.99 -0.98 -0.65 -0.65 -0.40 -0.50 -0.61 -0.61 -0.58 -0.50 -0.50 -0.30 -0.28 -0.27 -0.27 -0.30 -0.35 -0.26 -0.16 -0.16 -0.02 -0.00 -0.02 -0.02 -0.02 0.24 0.24 0.24 0.28 0.42 0.42 0.31 0.44 0.35 0.35 0.23 0.57 0.81 0.55 0.55 0.75 1.02 1.06 1.06 0.78 0.80 0.96 0.96 0.85 0.49 0.49 0.11 0.16 0.14 0.14 0.06 0.03 0.01 0.00 0.00 0.00 0.36 0.71 0.71 0.61 0.52 0.63 0.63 0.61 0.61 0.61 0.39 0.41 0.32 0.32 0.25 0.26 0.04 0.04 0.04 0.01 0.00 0.00 0.00 0.00 0.00 -0.03 -0.03 -0.00 0.00 0.00 0.00 0.02 0.03 0.03 0.03 0.01
-0.85 -0.66 -0.91 -0.75 -0.75 -0.75 -0.90 -1.07 -0.96 -0.96 -0.39 -0.43 -0.58 -0.58 -0.58 -0.46 -0.46 -0.27 -0.26 -0.26 -0.26 -0.38 -0.33 -0.30 -0.22 -0.22 -0.13 0.01 -0.03 -0.03 0.00 0.28 0.27 0.27 0.23 0.22 0.22 0.16 0.30 0.42 0.42 0.30 0.32 0.59 0.44 0.44 0.40 0.61 1.05 1.05 0.96 0.89 0.79 0.79 0.71 0.59 0.59 0.35 0.19 0.15 0.15 0.08 0.04 0.01 0.00 0.00 0.00 0.19 0.51 0.51 0.69 0.52 0.67 0.67 0.74 0.56 0.56 0.38 0.41 0.33 0.33 0.27 0.18 0.03 0.04 0.04 0.01 0.00 -0.00 -0.00 0.00 0.00 0.01 0.01 -0.00 0.00 0.00 0.00 0.01 0.03 0.03 0.03 0.01
-0.68 -0.57 -0.81 -0.81 -0.75 -0.75 -0.81 -0.93 -1.01 -1.01 -0.51 -0.31 -0.44 -0.44 -0.54 -0.43 -0.43 -0.38 -0.28 -0.22 -0.22 -0.34 -0.42 -0.31 -0.23 -0.23 -0.20 -0.16 -0.04 -0.04 0.01 0.30 0.36 0.36 0.23 0.14 0.14 0.15 0.17 0.30 0.30 0.34 0.19 0.30 0.30 0.30 0.32 0.31 0.60 0.60 1.13 0.99 0.90 0.90 0.58 0.57 0.57 0.42 0.20 0.17 0.17 0.10 0.05 0.03 0.00 0.00 0.01 0.07 0.33 0.33 0.66 0.61 0.72 0.72 0.60 0.57 0.57 0.40 0.22 0.27 0.27 0.30 0.16 0.03 -0.04 -0.04 0.03 0.01 -0.00 -0.00 -0.00 0.00 0.00 0.00 -0.02 0.00 0.00 0.00 0.00 0.02 0.02 0.03 0.02
-0.79 -0.60 -0.71 -0.82 -0.72 -0.72 -0.64 -0.85 -1.07 -1.07 -0.69 -0.35 -0.27 -0.27 -0.45 -0.45 -0.45 -0.32 -0.39 -0.32 -0.32 -0.23 -0.28 -0.29 -0.25 -0.25 -0.18 -0.19 -0.12 -0.12 -0.05 0.00 0.39 0.39 0.37 0.17 0.17 -0.00 0.11 0.17 0.17 0.20 0.17 0.17 0.22 0.22 0.24 0.27 0.32 0.32 0.63 0.81 0.93 0.93 0.85 0.54 0.54 0.46 0.32 0.20 0.20 0.14 0.09 0.04 0.00 0.00 0.00 0.01 0.07 0.07 0.27 0.77 0.91 0.91 0.65 0.63 0.63 0.44 0.43 0.19 0.19 0.10 0.13 0.03 -0.02 -0.02 0.01 0.02 -0.00 -0.00 -0.00 0.00 0.00 0.00 -0.01 -0.01 -0.01 0.00 0.00 -0.00 -0.00 0.02 0.01
-0.86 -0.79 -0.71 -0.87 -0.76 -0.76 -0.64 -0.61 -0.85 -0.85 -0.75 -0.55 -0.28 -0.28 -0.38 -0.27 -0.27 -0.35 -0.39 -0.39 -0.39 -0.29 -0.17 -0.19 -0.20 -0.20 -0.20 -0.22 -0.19 -0.19 -0.24 -0.09 0.10 0.10 0.33 0.35 0.35 0.02 -0.00 0.10 0.10 0.13 0.14 0.24 0.24 0.24 0.21 0.18 0.25 0.25 0.35 0.50 0.64 0.64 0.80 0.68 0.68 0.58 0.38 0.17 0.17 0.16 0.10 0.04 0.01 0.01 0.00 0.01 0.05 0.05 0.05 0.39 0.58 0.58 0.66 0.55 0.55 0.57 0.77 0.67 0.67 0.07 0.18 0.01 -0.04 -0.04 0.02 0.04 0.01 0.01 -0.00 0.00 0.00 0.00 -0.01 -0.01 -0.01 -0.00 -0.00 -0.01 -0.01 0.01 0.00
-0.44 -0.62 -0.69 -0.77 -0.77 -0.77 -0.70 -0.52 -0.66 -0.66 -0.78 -0.60 -0.48 -0.48 -0.33 -0.29 -0.29 -0.23 -0.39 -0.39 -0.39 -0.36 -0.26 -0.20 -0.18 -0.18 -0.24 -0.37 -0.34 -0.34 -0.36 -0.31 -0.14 -0.14 0.08 0.05 0.05 0.16 0.04 0.11 0.11 0.12 0.16 0.17 0.21 0.21 0.26 0.24 0.20 0.20 0.20 0.34 0.37 0.37 0.47 0.68 0.68 0.61 0.46 0.30 0.30 0.12 0.08 0.06 0.02 0.02 0.00 0.00 0.03 0.03 0.05 0.11 0.38 0.38 0.53 0.67 0.67 0.62 0.68 0.73 0.73 0.36 0.24 0.16 -0.02 -0.02 0.01 0.02 0.08 0.08 -0.00 0.00 0.00 0.00 0.00 -0.01 -0.01 -0.00 -0.01 -0.02 -0.02 0.00 0.00
0.01 -0.21 -0.37 -0.67 -0.75 -0.75 -0.74 -0.46 -0.47 -0.47 -0.68 -0.57 -0.54 -0.54 -0.49 -0.49 -0.49 -0.35 -0.17 -0.36 -0.36 -0.35 -0.37 -0.38 -0.37 -0.37 -0.46 -0.49 -0.47 -0.47 -0.43 -0.38 -0.28 -0.28 -0.01 -0.02 -0.02 0.02 0.11 0.09 0.09 0.16 0.17 0.13 0.13 0.13 0.26 0.28 0.18 0.18 0.15 0.25 0.38 0.38 0.30 0.40 0.40 0.33 0.41 0.29 0.29 0.16 0.01 0.04 0.04 0.04 0.00 0.00 0.00 0.00 0.05 0.09 0.15 0.15 0.36 0.59 0.59 0.57 0.52 0.68 0.68 0.62 0.58 0.20 0.06 0.06 -0.05 0.02 0.10 0.10 0.06 0.03 0.00 0.00 0.00 0.00 0.00 -0.02 -0.01 -0.02 -0.02 0.00 0.00
-0.08 -0.03 -0.05 -0.25 -0.54 -0.54 -0.69 -0.51 -0.34 -0.34 -0.52 -0.72 -0.63 -0.63 -0.60 -0.57 -0.57 -0.63 -0.45 -0.25 -0.25 -0.31 -0.31 -0.37 -0.41 -0.41 -0.44 -0.48 -0.54 -0.54 -0.41 -0.41 -0.31 -0.31 -0.05 -0.06 -0.06 -0.04 0.10 0.01 0.01 0.15 0.20 0.17 0.08 0.08 0.26 0.34 0.25 0.25 0.07 0.18 0.33 0.33 0.35 0.26 0.26 0.24 0.31 0.23 0.23 0.15 0.03 0.01 0.01 0.01 0.02 0.00 0.00 0.00 0.00 0.10 0.05 0.05 0.09 0.38 0.38 0.43 0.30 0.46 0.46 0.58 0.56 0.25 0.10 0.10 -0.02 0.03 0.10 0.10 0.06 0.04 0.02 0.02 0.01 -0.00 -0.00 -0.04 -0.01 -0.02 -0.02 -0.02 0.00
-0.17 -0.01 0.04 0.03 -0.12 -0.12 -0.30 -0.46 -0.36 -0.36 -0.40 -0.79 -0.67 -0.67 -0.70 -0.48 -0.48 -0.69 -0.72 -0.30 -0.30 -0.32 -0.41 -0.30 -0.40 -0.40 -0.44 -0.46 -0.48 -0.48 -0.42 -0.36 -0.34 -0.34 -0.30 -0.12 -0.12 -0.08 -0.10 -0.03 -0.03 0.04 0.30 0.18 0.10 0.10 0.09 0.34 0.33 0.33 0.23 0.12 0.23 0.23 0.46 0.31 0.31 0.28 0.21 0.16 0.16 0.13 0.08 0.03 0.00 0.00 0.00 0.00 0.00 0.00 0.00 0.00 0.07 0.07 0.06 0.11 0.11 0.21 0.28 0.23 0.23 0.40 0.40 0.46 0.16 0.16 0.05 0.04 0.01 0.01 0.05 0.02 0.05 0.05 0.02 0.01 0.01 -0.04 -0.02 -0.03 -0.03 -0.02 0.00
-0.26 -0.03 0.01 0.08 0.06 0.06 0.02 -0.10 -0.29 -0.29 -0.30 -0.40 -0.68 -0.68 -0.69 -0.68 -0.68 -0.56 -0.74 -0.46 -0.46 -0.29 -0.34 -0.48 -0.47 -0.47 -0.41 -0.44 -0.42 -0.42 -0.33 -0.34 -0.32 -0.32 -0.36 -0.20 -0.20 -0.16 -0.15 -0.09 -0.09 0.02 0.14 0.32 0.17 0.17 0.13 0.26 0.35 0.35 0.33 0.09 0.17 0.17 0.40 0.56 0.56 0.36 0.22 0.15 0.15 0.07 0.04 0.07 0.01 0.01 0.00 0.00 0.00 0.00 0.00 0.00 0.04 0.04 0.06 0.09 0.09 0.12 0.19 0.44 0.44 0.36 0.30 0.38 0.37 0.37 0.11 0.09 0.01 0.01 0.06 0.03 0.04 0.04 0.05 0.02 0.02 -0.02 -0.02 -0.01 -0.01 -0.02 0.00
-0.28 -0.10 -0.02 0.04 0.09 0.09 0.11 0.13 0.03 0.03 -0.01 -0.18 -0.39 -0.39 -0.60 -0.60 -0.60 -0.60 -0.61 -0.78 -0.78 -0.54 -0.46 -0.48 -0.45 -0.45 -0.51 -0.52 -0.36 -0.36 -0.40 -0.33 -0.35 -0.35 -0.35 -0.28 -0.28 -0.19 -0.10 -0.05 -0.05 -0.03 -0.01 0.01 0.40 0.40 0.16 0.07 0.33 0.33 0.32 0.28 0.11 0.11 0.28 0.39 0.39 0.41 0.27 0.18 0.18 0.06 0.04 0.02 0.09 0.09 0.01 0.00 0.00 0.00 0.00 0.00 0.00 0.00 0.06 0.08 0.08 0.10 0.09 0.28 0.28 0.37 0.34 0.36 0.29 0.29 0.19 0.18 -0.02 -0.02 0.03 0.00 0.10 0.10 0.09 0.05 0.05 0.03 -0.02 -0.01 -0.01 -0.03 0.00
-0.23 -0.14 -0.07 -0.03 0.06 0.06 0.10 0.14 0.11 0.11 0.15 0.19 0.11 0.11 -0.23 -0.56 -0.56 -0.65 -0.69 -0.67 -0.67 -0.81 -0.79 -0.64 -0.49 -0.49 -0.51 -0.54 -0.51 -0.51 -0.49 -0.40 -0.40 -0.40 -0.52 -0.49 -0.49 -0.30 -0.17 -0.03 -0.03 -0.02 0.01 0.08 0.36 0.36 0.38 0.16 0.23 0.23 0.29 0.27 0.20 0.20 0.19 0.27 0.27 0.37 0.32 0.23 0.23 0.13 0.03 0.02 0.04 0.04 0.09 0.08 0.00 0.00 0.00 0.00 0.00 0.00 0.00 0.07 0.07 0.09 0.06 0.17 0.17 0.33 0.10 0.30 0.16 0.16 0.07 0.14 0.13 0.13 0.05 -0.02 0.01 0.01 0.16 0.06 0.06 0.04 0.01 -0.01 -0.01 -0.03 -0.02
-0.22 -0.21 -0.11 -0.09 0.03 0.03 0.08 0.09 0.14 0.14 0.15 0.20 0.31 0.31 0.32 0.03 0.03 -0.46 -0.58 -0.62 -0.62 -0.81 -0.82 -0.73 -0.55 -0.55 -0.49 -0.51 -0.64 -0.64 -0.55 -0.53 -0.45 -0.45 -0.55 -0.69 -0.69 -0.65 -0.29 -0.18 -0.18 -0.14 -0.07 0.13 0.23 0.23 0.42 0.33 0.27 0.27 0.20 0.25 0.22 0.22 0.18 0.22 0.22 0.27 0.30 0.17 0.17 0.13 0.07 0.01 0.01 0.01 0.06 0.16 0.08 0.08 0.01 0.00 0.00 0.00 0.00 0.00 0.00 0.00 0.04 0.04 0.04 0.14 0.04 -0.00 0.09 0.09 -0.00 -0.00 0.13 0.13 0.13 -0.02 -0.01 -0.01 0.06 0.07 0.07 0.05 0.02 0.01 0.01 -0.03 -0.02
-0.21 -0.23 -0.16 -0.15 -0.17 -0.17 -0.03 0.05 0.14 0.14 0.19 0.25 0.30 0.30 0.51 0.44 0.44 0.13 -0.27 -0.47 -0.47 -0.64 -0.83 -0.66 -0.56 -0.56 -0.41 -0.43 -0.52 -0.52 -0.65 -0.55 -0.59 -0.59 -0.56 -0.61 -0.61 -0.68 -0.44 -0.32 -0.32 -0.22 -0.08 0.10 0.27 0.27 0.29 0.36 0.28 0.28 0.17 0.25 0.29 0.29 0.23 0.24 0.24 0.23 0.23 0.12 0.12 0.09 0.06 0.03 0.00 0.00 0.00 0.00 0.16 0.16 0.08 0.01 0.00 0.00 0.00 0.00 0.00 0.00 0.01 0.05 0.05 0.05 0.02 -0.01 -0.06 -0.06 -0.09 -0.01 -0.02 -0.02 0.17 0.14 0.00 0.00 0.06 0.14 0.14 0.05 0.03 0.02 0.02 0.00 -0.02
-0.20 -0.30 -0.24 -0.21 -0.26 -0.26 -0.40 -0.19 -0.20 -0.20 0.02 0.16 0.28 0.28 0.53 0.55 0.55 0.50 0.23 0.16 0.16 -0.01 -0.47 -0.23 -0.29 -0.29 -0.36 -0.39 -0.39 -0.39 -0.37 -0.60 -0.49 -0.49 -0.51 -0.51 -0.51 -0.59 -0.68 -0.62 -0.62 -0.55 -0.41 -0.00 0.14 0.14 0.18 0.14 0.07 0.07 0.07 0.07 0.17 0.17 0.35 0.37 0.37 0.28 0.28 0.16 0.16 0.11 0.03 0.04 0.03 0.03 0.00 0.00 0.03 0.03 0.06 0.09 0.08 0.08 0.05 0.00 0.00 0.00 0.00 0.00 0.00 0.08 0.07 0.02 -0.08 -0.08 -0.15 -0.06 -0.01 -0.01 -0.04 0.02 0.01 0.01 -0.04 0.06 0.06 0.19 0.16 0.13 0.13 0.02 -0.01
-0.14 -0.16 -0.32 -0.38 -0.33 -0.33 -0.41 -0.38 -0.38 -0.38 -0.19 0.05 0.16 0.16 0.48 0.51 0.51 0.47 0.45 0.34 0.34 0.23 0.23 0.08 -0.02 -0.02 -0.17 -0.34 -0.31 -0.31 -0.31 -0.37 -0.29 -0.29 -0.45 -0.47 -0.47 -0.51 -0.52 -0.55 -0.55 -0.30 -0.20 -0.07 0.17 0.17 0.17 0.12 0.05 0.05 0.03 0.02 0.02 0.02 0.22 0.21 0.21 0.36 0.37 0.26 0.26 0.19 0.03 0.02 0.02 0.02 0.00 0.01 0.03 0.03 0.05 0.01 0.06 0.06 0.07 0.03 0.03 0.00 0.00 0.00 0.00 0.04 0.07 0.01 -0.02 -0.02 -0.15 -0.11 -0.02 -0.02 0.02 0.04 0.02 0.02 -0.10 -0.09 -0.09 0.14 0.18 0.16 0.16 0.11 0.01
-0.14 -0.13 -0.35 -0.51 -0.62 -0.62 -0.35 -0.56 -0.56 -0.56 -0.51 -0.19 0.04 0.04 0.16 0.41 0.41 0.41 0.43 0.43 0.43 0.32 0.32 0.19 0.17 0.17 0.07 -0.17 -0.23 -0.23 -0.22 -0.17 -0.11 -0.11 -0.22 -0.34 -0.34 -0.43 -0.42 -0.40 -0.40 -0.11 -0.02 0.08 0.20 0.20 0.16 0.12 0.08 0.08 0.02 0.01 0.00 0.00 0.01 0.06 0.06 0.24 0.34 0.32 0.32 0.20 0.09 0.00 0.00 0.00 0.00 0.00 0.03 0.03 0.05 0.02 0.01 0.01 0.04 0.02 0.02 0.02 0.00 0.00 0.00 0.00 0.00 0.00 -0.02 -0.02 -0.08 -0.12 -0.02 -0.02 -0.01 0.01 0.01 0.01 -0.11 -0.15 -0.15 -0.10 0.16 0.15 0.15 0.17 0.11
-0.20 -0.12 -0.25 -0.47 -0.69 -0.69 -0.68 -0.71 -0.70 -0.70 -0.71 -0.39 -0.25 -0.25 -0.05 0.14 0.14 0.26 0.36 0.42 0.42 0.36 0.31 0.28 0.24 0.24 0.19 0.10 -0.09 -0.09 -0.16 -0.10 -0.11 -0.11 -0.11 -0.18 -0.18 -0.22 -0.22 -0.23 -0.23 -0.09 0.14 0.22 0.27 0.27 0.17 0.14 0.09 0.09 0.02 0.00 0.01 0.01 0.01 0.07 0.07 0.11 0.36 0.32 0.32 0.18 0.09 0.01 0.00 0.00 0.00 0.00 0.00 0.00 0.06 0.01 0.00 0.00 0.01 0.00 0.00 0.00 0.01 0.00 0.00 0.00 0.00 0.00 -0.01 -0.01 -0.08 -0.07 -0.02 -0.02 -0.01 -0.04 0.01 0.01 -0.09 -0.15 -0.15 -0.13 -0.01 0.12 0.12 0.14 0.16
-0.28 -0.19 -0.13 -0.24 -0.47 -0.47 -0.37 -0.84 -0.93 -0.93 -0.91 -0.69 -0.43 -0.43 -0.27 -0.02 -0.02 0.15 0.25 0.31 0.31 0.38 0.36 0.32 0.34 0.34 0.30 0.13 0.09 0.09 -0.01 0.04 -0.04 -0.04 -0.14 -0.08 -0.08 -0.04 0.02 -0.01 -0.01 0.07 0.12 0.30 0.30 0.30 0.29 0.18 0.10 0.10 0.05 0.00 0.00 0.00 0.01 0.01 0.01 0.11 0.18 0.34 0.34 0.15 0.08 0.01 0.00 0.00 0.00 0.00 0.00 0.00 0.02 0.00 0.00 0.00 0.00 -0.00 -0.00 0.00 0.00 0.00 0.00 0.00 0.00 0.00 0.00 0.00 -0.07 -0.07 -0.02 -0.02 0.09 -0.02 -0.06 -0.06 -0.01 -0.04 -0.04 -0.16 -0.10 0.00 0.00 0.10 0.18
-0.37 -0.32 -0.21 -0.14 -0.22 -0.22 -0.24 -0.82 -0.99 -0.99 -1.01 -0.76 -0.60 -0.60 -0.35 -0.25 -0.25 0.08 0.26 0.39 0.39 0.49 0.46 0.48 0.42 0.42 0.43 0.32 0.22 0.22 0.09 0.10 0.08 0.08 -0.04 -0.05 -0.05 0.12 0.09 0.02 0.02 0.07 0.10 0.24 0.35 0.35 0.37 0.25 0.12 0.12 0.05 0.02 0.00 0.00 0.00 0.02 0.02 0.03 0.07 0.11 0.11 0.05 0.05 0.01 0.00 0.00 0.00 0.00 0.00 0.00 0.00 0.00 0.00 0.00 0.00 0.00 0.00 0.00 0.00 0.00 0.00 -0.00 0.00 0.00 0.00 0.00 0.00 -0.05 -0.05 -0.05 0.05 0.10 -0.04 -0.04 -0.06 -0.07 -0.07 -0.10 -0.12 -0.11 -0.11 0.01 0.10
-0.56 -0.50 -0.39 -0.22 -0.35 -0.35 -0.32 -0.62 -0.84 -0.84 -0.99 -0.96 -0.56 -0.56 -0.45 -0.26 -0.26 0.02 0.26 0.41 0.41 0.54 0.52 0.48 0.49 0.49 0.51 0.46 0.33 0.33 0.15 0.14 0.12 0.12 0.21 0.28 0.28 0.15 -0.03 -0.02 -0.02 0.07 0.19 0.19 0.22 0.22 0.38 0.52 0.24 0.24 0.08 0.02 0.00 0.00 0.00 0.00 0.00 0.02 0.02 0.03 0.03 0.01 0.01 0.00 0.00 0.00 0.00 0.00 0.00 0.00 0.00 0.00 0.00 0.00 0.00 0.00 0.00 0.00 0.00 0.00 0.00 0.00 0.00 0.00 0.00 0.00 0.00 -0.02 -0.06 -0.06 -0.03 0.14 0.02 0.02 -0.05 -0.05 -0.05 -0.08 -0.12 -0.17 -0.17 -0.07 0.05
-0.62 -0.58 -0.51 -0.49 -0.42 -0.42 -0.35 -0.39 -0.66 -0.66 -0.82 -0.86 -0.66 -0.66 -0.63 -0.56 -0.56 0.00 0.17 0.12 0.12 0.28 0.47 0.41 0.38 0.38 0.52 0.48 0.45 0.45 0.33 0.21 0.21 0.21 0.34 0.31 0.31 0.17 0.03 0.03 0.03 0.09 0.15 0.20 0.30 0.30 0.40 0.50 0.50 0.50 0.19 0.05 0.01 0.01 0.00 0.00 0.00 0.00 0.01 0.01 0.01 0.01 0.00 0.00 0.00 0.00 0.00 0.00 0.00 0.00 0.00 0.00 0.00 0.00 0.00 0.00 0.00 0.00 0.00 0.00 0.00 0.00 0.00 0.00 0.00 0.00 -0.00 -0.00 -0.01 -0.01 -0.04 0.05 0.11 0.11 -0.01 -0.04 -0.04 -0.09 -0.10 -0.11 -0.11 -0.11 0.00
-0.55 -0.58 -0.52 -0.39 -0.37 -0.37 -0.35 -0.36 -0.51 -0.51 -0.68 -0.78 -0.85 -0.85 -0.86 -0.88 -0.88 -0.62 0.03 0.02 0.02 0.15 0.42 0.50 0.48 0.48 0.40 0.36 0.37 0.37 0.39 0.42 0.31 0.31 0.37 0.29 0.29 0.16 0.06 0.02 0.02 0.17 0.20 0.29 0.36 0.36 0.44 0.56 0.50 0.50 0.34 0.18 0.05 0.05 0.09 0.01 0.01 0.01 0.00 0.01 0.01 0.00 0.00 0.00 0.00 0.00 0.00 0.00 0.00 0.00 0.00 0.00 0.00 0.00 0.00 0.00 0.00 0.00 0.00 0.00 0.00 0.00 0.00 0.00 0.00 0.00 -0.00 0.00 -0.00 -0.00 -0.01 -0.01 0.08 0.08 0.04 0.01 0.01 -0.06 -0.08 -0.08 -0.08 -0.15 -0.10
-0.46 -0.52 -0.54 -0.50 -0.37 -0.37 -0.36 -0.37 -0.43 -0.43 -0.57 -0.76 -1.01 -1.01 -1.04 -1.03 -1.03 -0.87 -0.41 -0.13 -0.13 0.17 0.54 0.65 0.67 0.67 0.55 0.31 0.25 0.25 0.20 0.54 0.51 0.51 0.39 0.31 0.31 0.10 0.04 0.23 0.23 0.42 0.25 0.34 0.38 0.38 0.54 0.54 0.48 0.48 0.51 0.35 0.22 0.22 0.24 0.13 0.13 0.01 0.01 0.00 0.00 0.00 0.00 0.00 0.00 0.00 0.00 0.00 0.00 0.00 0.00 0.00 0.00 0.00 0.00 0.00 0.00 0.00 0.00 0.00 0.00 0.00 0.00 0.00 0.00 0.00 0.00 0.00 0.00 0.00 -0.00 -0.02 0.02 0.02 0.07 0.04 0.04 -0.00 -0.05 -0.07 -0.07 -0.11 -0.14
-0.37 -0.42 -0.54 -0.57 -0.47 -0.47 -0.47 -0.49 -0.46 -0.46 -0.49 -0.64 -0.81 -0.81 -1.01 -1.05 -1.05 -0.95 -0.59 -0.37 -0.37 -0.02 0.34 0.70 0.73 0.73 0.63 0.29 0.11 0.11 0.12 0.32 0.64 0.64 0.54 0.34 0.34 0.21 0.58 0.57 0.57 0.29 0.18 0.24 0.26 0.26 0.21 0.37 0.36 0.36 0.36 0.43 0.37 0.37 0.34 0.29 0.29 0.03 0.01 0.01 0.01 0.00 0.00 0.00 0.00 0.00 0.01 0.00 0.00 0.00 0.00 0.01 0.00 0.00 0.00 0.00 0.00 0.00 0.00 0.00 0.00 0.00 0.00 0.00 0.00 0.00 0.00 0.00 0.00 0.00 0.00 -0.01 -0.03 -0.03 -0.01 0.03 0.03 0.02 -0.02 -0.04 -0.04 -0.08 -0.14
-0.21 -0.32 -0.46 -0.56 -0.64 -0.64 -0.62 -0.60 -0.57 -0.57 -0.49 -0.49 -0.57 -0.57 -0.95 -0.91 -0.91 -0.92 -0.88 -0.67 -0.67 -0.28 0.16 0.72 0.86 0.86 0.81 0.62 0.36 0.36 0.22 0.24 0.66 0.66 0.66 0.53 0.53 0.39 0.30 0.22 0.22 0.13 0.03 0.08 0.17 0.17 0.03 0.04 0.19 0.19 0.17 0.24 0.30 0.30 0.31 0.31 0.31 0.23 0.04 0.04 0.04 0.01 0.00 0.00 0.01 0.01 0.00 0.00 0.00 0.00 0.01 0.01 0.01 0.01 0.00 0.00 0.00 0.00 0.00 0.00 0.00 0.00 0.00 0.00 0.00 0.00 0.00 0.00 0.00 0.00 -0.00 -0.00 -0.02 -0.02 -0.02 -0.01 -0.01 0.01 0.02 -0.01 -0.01 -0.04 -0.05
-0.07 -0.19 -0.31 -0.47 -0.67 -0.67 -0.75 -0.73 -0.72 -0.72 -0.68 -0.55 -0.53 -0.53 -0.90 -1.04 -1.04 -1.02 -0.93 -0.77 -0.77 -0.53 -0.13 0.23 0.76 0.76 0.93 0.85 0.66 0.66 0.45 0.29 0.36 0.36 0.65 0.62 0.62 0.57 0.54 0.19 0.19 0.09 0.04 0.06 0.07 0.07 0.00 0.00 0.08 0.08 0.10 0.16 0.27 0.27 0.29 0.28 0.28 0.25 0.22 0.09 0.09 0.03 0.02 0.00 0.00 0.00 0.00 0.00 0.00 0.00 0.00 0.00 0.01 0.01 0.00 0.00 0.00 0.00 0.00 0.00 0.00 0.00 0.00 0.00 0.00 0.00 0.00 0.00 0.00 0.00 -0.00 -0.00 -0.01 -0.01 -0.02 -0.02 -0.02 -0.00 0.01 -0.01 -0.01 -0.03 -0.03
-0.02 -0.10 -0.14 -0.34 -0.60 -0.60 -0.75 -0.89 -0.91 -0.91 -0.99 -0.96 -0.74 -0.74 -0.79 -0.98 -0.98 -1.19 -1.29 -1.11 -1.11 -0.95 -0.61 -0.12 0.61 0.61 0.87 1.04 1.09 1.09 0.69 0.56 0.41 0.41 0.66 0.62 0.62 0.63 0.60 0.36 0.36 0.26 0.32 0.36 0.01 0.01 0.00 0.00 0.02 0.02 0.05 0.13 0.18 0.18 0.24 0.24 0.24 0.26 0.21 0.20 0.20 0.05 0.03 0.01 0.01 0.01 0.00 0.00 0.00 0.00 0.00 0.00 0.00 0.00 0.00 0.00 0.00 0.00 0.00 0.00 0.00 0.00 0.00 0.00 0.00 0.00 0.00 0.00 0.00 0.00 -0.00 0.00 -0.00 -0.00 -0.01 -0.02 -0.02 -0.01 -0.00 -0.00 -0.00 -0.04 -0.00
-0.00 -0.05 -0.09 -0.16 -0.37 -0.37 -0.66 -0.88 -1.07 -1.07 -1.12 -1.18 -1.13 -1.13 -1.08 -1.41 -1.41 -1.50 -1.59 -1.65 -1.65 -1.34 -1.02 -0.57 0.30 0.30 0.76 0.82 1.03 1.03 1.02 0.79 0.66 0.66 0.61 0.70 0.70 0.74 0.71 0.57 0.57 0.29 0.11 0.12 0.00 0.00 0.00 0.00 0.03 0.03 0.03 0.04 0.06 0.06 0.10 0.15 0.15 0.19 0.20 0.15 0.15 0.16 0.04 0.03 0.01 0.01 0.00 0.00 0.00 0.00 0.00 0.00 0.00 0.00 0.00 0.00 0.00 0.00 0.00 0.00 0.00 0.00 0.00 0.00 0.00 0.00 0.00 0.00 0.00 0.00 -0.00 0.00 0.00 0.00 0.00 -0.00 -0.00 -0.02 -0.01 -0.01 -0.01 -0.01 -0.03
-0.02 -0.02 -0.05 -0.13 -0.23 -0.23 -0.48 -0.62 -0.88 -0.88 -1.01 -1.11 -1.24 -1.24 -1.29 -1.41 -1.41 -1.51 -1.64 -1.77 -1.77 -1.42 -1.13 -0.82 -0.54 -0.54 0.41 0.47 0.95 0.95 1.20 1.17 0.93 0.93 0.73 0.76 0.76 0.77 0.72 0.57 0.57 0.46 0.25 0.04 0.04 0.04 0.00 0.02 0.00 0.00 0.00 0.02 0.02 0.02 0.10 0.13 0.13 0.13 0.15 0.10 0.10 0.12 0.08 0.06 0.06 0.06 0.02 0.01 0.00 0.00 0.00 0.00 0.00 0.00 0.00 0.00 0.00 0.00 0.00 0.00 0.00 0.00 0.00 0.00 0.00 0.00 0.00 0.00 0.00 0.00 0.00 -0.00 0.00 0.00 0.00 0.00 0.00 -0.01 -0.01 -0.02 -0.02 -0.02 -0.06
-0.02 -0.02 -0.03 -0.07 -0.18 -0.18 -0.48 -0.49 -0.58 -0.58 -0.73 -0.82 -0.92 -0.92 -0.74 -0.88 -0.88 -1.10 -1.24 -1.50 -1.50 -1.60 -1.52 -1.25 -0.92 -0.92 -0.08 -0.14 0.42 0.42 1.00 1.31 1.30 1.30 1.05 0.82 0.82 0.74 0.72 0.71 0.71 0.59 0.36 0.17 0.15 0.15 0.04 0.01 0.02 0.02 0.00 0.00 0.02 0.02 0.05 0.10 0.10 0.16 0.11 0.07 0.07 0.09 0.10 0.12 0.09 0.09 0.05 0.01 0.00 0.00 0.00 0.00 0.00 0.00 0.00 0.00 0.00 0.00 0.00 0.00 0.00 0.00 0.00 0.00 0.00 0.00 0.00 0.00 0.00 0.00 0.00 0.00 -0.00 -0.00 0.00 0.00 0.00 -0.00 -0.02 -0.04 -0.04 -0.03 -0.06
-0.02 -0.01 -0.02 -0.04 -0.10 -0.10 -0.42 -0.64 -0.61 -0.61 -0.66 -0.63 -0.64 -0.64 -0.50 -0.51 -0.51 -0.80 -0.93 -1.12 -1.12 -1.39 -1.89 -1.64 -1.18 -1.18 -1.07 -0.53 -0.14 -0.14 0.50 0.94 1.26 1.26 1.42 1.31 1.31 1.17 0.82 0.81 0.81 0.73 0.52 0.33 0.24 0.24 0.16 0.05 0.00 0.00 0.00 0.00 0.00 0.00 0.04 0.05 0.05 0.09 0.08 0.06 0.06 0.04 0.08 0.10 0.08 0.08 0.07 0.04 0.00 0.00 0.00 0.00 0.00 0.00 0.00 0.00 0.00 0.00 0.00 0.00 0.00 0.00 0.00 0.00 0.00 0.00 0.00 0.00 0.00 0.00 0.00 0.00 0.00 0.00 0.00 0.00 0.00 0.00 -0.01 -0.01 -0.01 -0.04 -0.06
-0.05 -0.01 -0.01 -0.02 -0.07 -0.07 -0.15 -0.57 -0.78 -0.78 -0.78 -0.71 -0.58 -0.58 -0.51 -0.42 -0.42 -0.64 -0.93 -1.06 -1.06 -1.29 -1.77 -1.85 -1.46 -1.46 -1.66 -0.85 -0.40 -0.40 0.11 0.56 1.07 1.07 1.41 1.46 1.46 1.30 0.85 0.76 0.76 0.75 0.59 0.31 0.26 0.26 0.21 0.09 0.01 0.01 0.00 0.01 0.00 0.00 0.00 0.03 0.03 0.05 0.08 0.07 0.07 0.04 0.04 0.05 0.04 0.04 0.06 0.06 0.04 0.04 0.03 0.00 0.00 0.00 0.00 0.00 0.00 0.00 0.00 0.00 0.00 0.00 0.00 0.00 0.00 0.00 0.00 0.00 0.00 0.00 0.00 0.00 0.00 0.00 0.00 0.00 0.00 0.00 -0.00 -0.00 -0.00 -0.02 -0.05